This is the latest recevied weather packets stored in our database for station/object EA7AVH-10. If no packets are shown the sender has not sent any weather packets the latest 10 day(s).
| Time | Temp. | Humidity | Pressure | Rain* | Wind** | Luminosity | Snow |
|---|---|---|---|---|---|---|---|
| 1777852039 | 15° C | 72% | 921.6 hPa | - | - | - | - |
| 1777851138 | 15.56° C | 72% | 921.7 hPa | - | - | - | - |
| 1777850237 | 16.11° C | 71% | 921.7 hPa | - | - | - | - |
| 1777849354 | 15.56° C | 72% | 921.7 hPa | - | - | - | - |
| 1777848454 | 15° C | 73% | 921.8 hPa | - | - | - | - |
| 1777847553 | 15° C | 73% | 922 hPa | - | - | - | - |
| 1777846652 | 15° C | 73% | 921.9 hPa | - | - | - | - |
| 1777845751 | 15.56° C | 73% | 921.9 hPa | - | - | - | - |
| 1777844850 | 16.11° C | 72% | 921.9 hPa | - | - | - | - |
| 1777843950 | 16.11° C | 73% | 922.1 hPa | - | - | - | - |
| 1777843049 | 16.11° C | 73% | 922.1 hPa | - | - | - | - |
| 1777842148 | 16.11° C | 73% | 921.9 hPa | - | - | - | - |
| 1777841247 | 16.11° C | 73% | 921.9 hPa | - | - | - | - |
| 1777840346 | 16.67° C | 72% | 921.7 hPa | - | - | - | - |
| 1777839446 | 17.22° C | 72% | 921.5 hPa | - | - | - | - |
| 1777838545 | 17.22° C | 71% | 921.3 hPa | - | - | - | - |
| 1777837644 | 17.78° C | 70% | 921 hPa | - | - | - | - |
| 1777836743 | 17.78° C | 69% | 920.9 hPa | - | - | - | - |
| 1777835842 | 17.78° C | 69% | 920.7 hPa | - | - | - | - |
| 1777834942 | 18.33° C | 68% | 920.7 hPa | - | - | - | - |
| 1777834041 | 18.89° C | 67% | 920.4 hPa | - | - | - | - |
| 1777833140 | 19.44° C | 65% | 920.2 hPa | - | - | - | - |
| 1777832239 | 20° C | 65% | 920.2 hPa | - | - | - | - |
| 1777831338 | 20.56° C | 64% | 920.2 hPa | - | - | - | - |
| 1777830438 | 20.56° C | 65% | 920.1 hPa | - | - | - | - |
* Rain since midnight (hover to see other rain measurements)
** Current wind speed in m/s (hover to see current wind gust speed)